PBO Station Position Time Series. Reference Frame : NAM14
Format Version,1.1.0
4-character ID,LASC
Station name,LASC_SCGN_CS1998
Begin Date, 1998-10-16
End Date, 2009-10-22
Release Date, 2019-08-30
Reference position, 33.9279408354 North Latitude, -118.3065042964 East Longitude, 24.68223 meters elevation,
Date, North (mm), East (mm), Vertical (mm), North Std. Deviation (mm), East Std. Deviation (mm),              Vertical Std. Deviation (mm), Quality,
1998-10-16,0.00, 0.00, 0.00, 2.26, 2.00, 8.40, repro,
1998-10-17,0.04, 2.09, -5.94, 2.31, 2.01, 8.86, repro,
1998-10-18,-0.15, 1.64, -3.18, 2.36, 2.14, 8.90, repro,
1998-10-19,0.53, 3.57, -14.47, 2.49, 2.33, 9.44, repro,
1998-10-20,-1.50, 2.79, -1.95, 2.25, 1.98, 8.77, repro,
1998-10-21,-0.73, 1.82, -0.99, 2.23, 1.98, 8.32, repro,
1998-10-22,0.53, -0.60, -7.12, 2.19, 1.93, 8.15, repro,
1998-10-23,-0.74, 0.68, -13.52, 2.26, 1.98, 8.36, repro,
1998-10-24,0.22, 2.11, -7.79, 2.51, 2.32, 9.48, repro,
1998-10-25,-1.24, 1.53, -3.80, 2.14, 1.90, 8.20, repro,
1998-10-26,0.63, 2.02, -1.90, 2.23, 1.98, 8.37, repro,
1998-10-27,-0.73, 1.73, -5.46, 2.28, 2.05, 8.38, repro,
1998-10-28,1.66, 1.95, -14.64, 2.31, 2.13, 8.76, repro,
1998-10-29,0.81, 1.62, 3.82, 2.11, 1.89, 8.12, repro,
1998-10-30,0.47, 0.56, -2.48, 2.13, 1.95, 8.16, repro,
1998-10-31,-0.27, 1.16, -3.67, 2.13, 1.86, 8.21, repro,
1998-11-01,-2.28, 2.67, -6.63, 2.25, 1.98, 8.41, repro,
1998-11-02,-1.05, 1.72, -0.72, 2.23, 1.96, 8.71, repro,
1998-11-03,-0.89, 0.52, -8.24, 2.41, 2.09, 9.15, repro,
1998-11-04,-1.15, 1.28, -2.55, 2.35, 2.17, 9.16, repro,
1998-11-05,0.09, 2.22, -8.76, 2.29, 2.04, 8.63, repro,
1998-11-06,0.81, 2.45, -1.16, 2.13, 1.90, 8.19, repro,
1998-11-07,0.06, 1.41, -1.96, 2.17, 1.94, 8.45, repro,
1998-11-08,-0.73, 4.66, -7.61, 2.23, 2.03, 8.49, repro,
1998-11-09,-0.01, 1.15, -8.37, 2.14, 1.89, 8.13, repro,
1998-11-10,0.75, 1.85, 0.22, 2.14, 1.85, 8.14, repro,
1998-11-11,-0.57, 2.79, -3.31, 2.22, 1.96, 8.46, repro,
1998-11-12,0.86, 1.34, -1.08, 2.22, 1.91, 8.26, repro,
1998-11-13,1.13, 0.51, -5.44, 2.37, 2.18, 9.20, repro,
1998-11-14,-0.11, 1.72, 0.14, 2.20, 1.89, 8.24, repro,
1998-11-15,-2.06, 1.27, 2.67, 2.18, 1.91, 8.18, repro,
1998-11-16,0.35, 0.40, 4.71, 2.14, 1.84, 8.05, repro,
1998-11-17,0.53, 1.48, -2.57, 2.21, 1.87, 8.24, repro,
1998-11-18,0.58, 2.25, -3.55, 2.11, 1.83, 8.04, repro,
1998-11-19,0.31, 1.11, 1.05, 2.18, 1.87, 8.22, repro,
1998-11-20,1.22, 0.85, -0.91, 2.07, 1.80, 7.85, repro,
1998-11-21,0.48, 2.83, 5.48, 2.35, 2.06, 8.85, repro,
1998-11-22,1.75, 0.68, 0.26, 2.10, 1.83, 7.92, repro,
1998-11-23,0.40, 1.14, -0.30, 2.15, 1.87, 8.14, repro,
1998-11-24,0.63, 0.55, -5.40, 2.07, 1.80, 7.79, repro,
1998-11-25,1.76, 0.44, -1.73, 2.08, 1.81, 7.84, repro,
1998-11-26,0.07, 0.14, -5.68, 2.16, 1.87, 8.06, repro,
1998-11-27,0.52, 0.45, 6.30, 2.18, 1.86, 8.22, repro,
1998-11-28,0.65, -1.71, 1.33, 2.13, 1.85, 8.17, repro,
1998-11-29,-0.86, 0.94, 2.50, 2.12, 1.82, 8.03, repro,
1998-11-30,0.26, 0.76, 2.87, 2.22, 1.91, 8.28, repro,
1998-12-01,1.01, 1.03, -1.93, 2.20, 1.91, 8.16, repro,
1998-12-02,0.61, 1.26, -7.35, 2.15, 1.83, 8.14, repro,
1998-12-03,2.02, -0.84, 2.12, 2.22, 1.90, 8.28, repro,
1998-12-04,2.68, -0.62, 6.73, 2.30, 1.98, 8.49, repro,
1998-12-05,-0.39, 0.78, -2.20, 2.25, 1.92, 8.25, repro,
1998-12-06,1.04, 1.11, -2.70, 2.13, 1.91, 8.12, repro,
1998-12-07,1.04, 0.32, -4.37, 2.18, 1.97, 8.34, repro,
1998-12-08,2.77, 2.26, -9.49, 2.36, 2.06, 8.92, repro,
1998-12-09,0.79, 1.77, -7.95, 2.23, 2.08, 8.68, repro,
1998-12-10,3.52, 1.57, -1.42, 2.27, 2.11, 8.72, repro,
1998-12-11,0.86, 1.45, -4.14, 2.29, 2.17, 8.77, repro,
1998-12-12,0.12, 0.10, -5.45, 2.23, 2.10, 8.65, repro,
1998-12-13,1.22, 0.36, -12.30, 2.16, 1.93, 8.26, repro,
1998-12-14,1.38, 2.23, -0.52, 2.60, 2.52, 10.85, repro,
1998-12-15,1.77, 4.44, -12.51, 2.49, 2.29, 9.75, repro,
1998-12-16,2.13, 0.55, -3.09, 2.17, 1.96, 8.24, repro,
1998-12-17,1.32, 0.88, -2.82, 2.05, 1.81, 7.85, repro,
1998-12-18,-0.01, -0.25, -7.63, 2.19, 1.91, 8.53, repro,
1998-12-19,1.18, 0.57, -8.48, 2.10, 1.88, 8.05, repro,
1998-12-20,0.34, 1.51, 0.69, 2.19, 1.97, 8.49, repro,
1998-12-21,1.20, 0.84, -1.48, 2.18, 2.00, 8.32, repro,
1998-12-22,1.65, 0.41, -4.08, 2.22, 1.97, 8.55, repro,
1998-12-23,-1.48, -0.66, -12.78, 2.17, 1.99, 8.30, repro,
1998-12-24,0.26, 2.15, -5.98, 2.28, 2.06, 8.83, repro,
1998-12-25,2.27, 0.42, -11.87, 2.35, 2.15, 9.22, repro,
1998-12-26,2.12, 0.73, -3.57, 2.20, 2.05, 8.42, repro,
1998-12-27,1.41, 1.44, -4.79, 2.30, 2.16, 8.86, repro,
1998-12-28,0.64, -0.86, -6.95, 2.25, 2.01, 8.59, repro,
1998-12-29,-0.75, 1.27, -13.93, 2.20, 1.98, 8.59, repro,
1998-12-30,-0.66, -0.25, -9.96, 2.51, 2.35, 9.70, repro,
1998-12-31,1.55, 0.05, -0.35, 2.19, 1.95, 8.28, repro,
1999-01-01,1.11, 0.65, -10.54, 2.25, 2.01, 8.69, repro,
1999-01-02,0.17, 0.61, -9.12, 2.30, 2.08, 8.66, repro,
1999-01-03,-0.40, 0.59, -9.38, 2.13, 1.93, 8.32, repro,
1999-01-04,0.88, 1.46, -8.74, 2.24, 1.99, 8.58, repro,
1999-01-05,0.70, 0.62, -3.43, 2.26, 2.08, 8.61, repro,
1999-01-06,0.35, 0.97, -5.88, 2.18, 2.00, 8.71, repro,
1999-01-07,-0.94, 0.52, -6.57, 2.15, 1.91, 8.30, repro,
1999-01-08,0.31, 2.19, -8.93, 2.07, 1.86, 7.96, repro,
1999-01-09,0.21, 0.56, -15.38, 2.81, 2.74, 11.03, repro,
1999-01-10,1.22, -0.54, -13.48, 2.20, 1.93, 8.66, repro,
1999-01-11,0.27, 1.42, -6.83, 2.23, 1.97, 8.82, repro,
1999-01-12,1.47, 0.23, -0.62, 2.17, 2.02, 8.59, repro,
1999-01-13,0.81, 1.16, -9.07, 2.26, 1.93, 8.74, repro,
1999-01-14,1.09, 0.70, -2.44, 2.28, 1.91, 8.68, repro,
1999-01-15,1.29, -0.36, -9.68, 2.25, 2.04, 8.91, repro,
1999-01-16,0.60, 0.65, -5.66, 2.12, 1.87, 8.11, repro,
1999-01-17,1.80, 0.72, -14.04, 2.13, 1.90, 8.31, repro,
1999-01-18,-0.17, 1.06, -7.02, 2.14, 1.86, 8.04, repro,
1999-01-19,0.71, 1.83, -8.69, 2.05, 1.82, 7.78, repro,
1999-01-20,0.47, 0.24, -9.21, 2.20, 1.89, 8.51, repro,
1999-01-21,0.10, -0.64, -15.34, 2.25, 1.96, 8.71, repro,
1999-01-22,1.41, 0.47, -8.45, 2.09, 1.85, 8.06, repro,
1999-01-23,1.89, -0.73, -1.32, 2.27, 2.06, 8.99, repro,
1999-01-24,0.60, 1.50, -13.74, 2.34, 2.18, 9.73, repro,
1999-01-25,-0.89, 1.39, -5.58, 2.24, 1.95, 8.78, repro,
1999-01-26,-0.09, 1.86, -13.06, 2.44, 2.08, 10.36, repro,
1999-01-27,1.25, 0.46, -12.31, 2.21, 1.86, 8.42, repro,
1999-01-28,2.38, -0.23, -7.88, 2.13, 1.88, 8.26, repro,
1999-01-29,1.44, 2.00, -1.58, 2.31, 1.99, 9.13, repro,
1999-01-30,2.32, 0.14, -2.05, 2.43, 2.10, 9.52, repro,
1999-01-31,2.02, 2.18, -6.72, 2.30, 2.08, 9.18, repro,
1999-02-01,4.36, -4.06, 8.71, 8.41, 7.95, 29.42, repro,
1999-02-02,2.74, 1.02, -1.02, 2.23, 1.89, 8.71, repro,
1999-02-03,3.98, 0.38, 0.53, 2.38, 2.00, 9.63, repro,
1999-02-04,1.11, -1.85, -0.03, 2.19, 1.84, 8.39, repro,
1999-02-05,-0.14, -0.65, -2.80, 2.15, 1.86, 8.45, repro,
1999-02-06,1.17, -0.75, -0.54, 2.30, 2.03, 9.29, repro,
1999-02-07,1.03, -0.35, -8.58, 2.21, 1.91, 8.67, repro,
1999-02-08,1.11, 1.19, 2.23, 2.11, 1.89, 8.24, repro,
1999-02-09,0.07, 1.73, -0.33, 2.34, 2.03, 9.27, repro,
1999-02-10,0.16, -0.05, -8.45, 2.18, 1.90, 8.51, repro,
1999-02-11,1.62, 1.43, -17.50, 2.28, 1.94, 8.93, repro,
1999-02-12,1.51, 1.57, -14.26, 2.33, 1.95, 9.26, repro,
1999-02-13,1.69, 0.26, -16.64, 2.09, 1.84, 8.06, repro,
1999-02-14,2.11, 1.65, -11.83, 2.24, 1.94, 8.71, repro,
1999-02-15,1.04, 0.61, -6.23, 2.22, 1.91, 8.71, repro,
1999-02-16,-0.04, 0.79, -9.39, 2.16, 1.97, 8.75, repro,
1999-02-17,1.58, -0.63, -6.91, 2.21, 1.88, 8.48, repro,
1999-02-18,-0.78, -1.87, 9.98, 2.17, 1.97, 8.55, repro,
1999-02-19,3.35, 1.03, -6.66, 2.19, 1.91, 8.54, repro,
1999-02-20,0.62, 0.75, -2.71, 2.14, 1.90, 8.30, repro,
1999-02-21,0.91, 0.22, -13.05, 2.10, 1.84, 7.98, repro,
1999-02-22,2.11, 0.86, -10.12, 2.15, 1.86, 8.16, repro,
1999-02-23,1.31, 0.07, -13.53, 2.07, 1.83, 7.85, repro,
1999-02-24,0.51, 0.13, -11.30, 2.07, 1.84, 7.83, repro,
1999-02-25,0.43, 0.62, -9.02, 2.05, 1.83, 7.84, repro,
1999-02-26,0.14, 0.27, -10.23, 2.12, 1.85, 8.05, repro,
1999-02-27,0.61, 0.91, -4.90, 2.13, 1.85, 8.12, repro,
1999-02-28,1.26, 0.43, -5.90, 2.05, 1.82, 7.82, repro,
1999-03-01,1.44, 0.37, -9.44, 2.15, 1.86, 8.19, repro,
1999-03-02,0.37, 1.43, -16.00, 2.13, 1.84, 8.18, repro,
1999-03-03,-0.40, 3.18, -15.11, 2.08, 1.85, 7.96, repro,
1999-03-04,0.17, 0.41, -14.01, 2.08, 1.83, 7.88, repro,
1999-03-05,0.03, -0.58, -13.48, 2.07, 1.83, 7.92, repro,
1999-03-06,-1.18, -0.52, -18.79, 2.12, 1.91, 8.10, repro,
1999-03-07,-1.10, -0.74, -15.39, 2.09, 1.85, 7.97, repro,
1999-03-08,-1.68, 0.07, -17.08, 2.07, 1.83, 7.86, repro,
1999-03-09,-0.87, -0.55, -13.57, 2.08, 1.85, 7.96, repro,
1999-03-10,-1.09, -0.45, -10.82, 2.08, 1.88, 7.98, repro,
1999-03-11,0.73, 0.75, -8.83, 2.08, 1.83, 7.86, repro,
1999-03-12,1.58, 1.18, -17.43, 2.13, 1.87, 8.01, repro,
1999-03-13,0.66, 0.78, -8.65, 2.17, 1.95, 8.19, repro,
1999-03-14,0.47, 0.67, -9.08, 2.08, 1.81, 7.83, repro,
1999-03-15,0.51, 0.69, -4.88, 2.20, 1.96, 8.40, repro,
1999-03-16,1.51, 1.75, -6.12, 2.37, 2.10, 9.10, repro,
1999-03-17,2.16, 1.90, -13.97, 2.13, 1.89, 8.11, repro,
1999-03-18,1.37, 2.00, -10.40, 2.23, 2.02, 8.45, repro,
1999-03-19,-0.31, 3.92, -11.60, 4.58, 4.54, 17.20, repro,
1999-03-20,2.13, 0.68, -9.23, 2.30, 2.06, 8.89, repro,
1999-03-21,1.25, -0.50, -1.87, 2.16, 1.94, 8.32, repro,
1999-03-22,2.50, 0.47, -3.43, 2.31, 2.10, 8.98, repro,
1999-03-23,4.31, 0.50, -7.15, 2.22, 2.02, 8.65, repro,
1999-03-24,1.97, -1.29, -5.34, 2.40, 2.13, 9.49, repro,
1999-03-25,0.50, 0.67, -8.66, 2.48, 2.24, 9.86, repro,
1999-03-26,-0.19, 0.08, -7.28, 2.41, 2.12, 9.35, repro,
1999-03-27,0.61, 0.74, -12.24, 2.16, 1.95, 8.27, repro,
1999-03-28,3.08, 0.19, -7.05, 2.29, 2.09, 8.99, repro,
1999-03-29,0.31, -0.55, -11.56, 2.34, 2.20, 9.36, repro,
1999-03-30,0.27, -0.12, -16.32, 2.25, 1.98, 8.70, repro,
1999-03-31,1.39, 1.44, -10.86, 2.32, 2.02, 8.99, repro,
1999-04-01,-1.48, 0.34, -5.03, 2.18, 1.93, 8.22, repro,
1999-04-02,0.16, -0.87, -16.22, 2.29, 2.00, 8.67, repro,
1999-04-03,0.03, 0.29, -8.57, 2.17, 1.89, 8.23, repro,
1999-04-04,-0.08, -0.43, -11.86, 2.15, 1.89, 8.13, repro,
1999-04-05,2.01, 1.93, -7.55, 2.34, 2.03, 8.94, repro,
1999-04-06,2.02, 0.88, -7.20, 2.21, 1.96, 8.48, repro,
1999-04-07,4.42, 0.99, -9.47, 2.13, 1.89, 8.14, repro,
1999-04-08,3.32, 1.42, -2.49, 2.14, 1.93, 8.30, repro,
1999-04-09,3.94, 2.61, -3.04, 2.19, 2.03, 8.59, repro,
1999-04-10,3.41, 2.59, -6.03, 2.12, 1.89, 8.13, repro,
1999-04-11,3.59, 0.49, -1.89, 2.14, 1.89, 8.13, repro,
1999-04-12,1.62, 1.67, 0.54, 2.13, 1.89, 8.18, repro,
1999-04-13,4.00, 0.45, -7.36, 2.12, 1.91, 8.21, repro,
1999-04-14,1.90, 1.54, -7.82, 2.12, 1.91, 8.18, repro,
1999-04-15,2.45, 1.32, -6.53, 2.11, 1.88, 8.11, repro,
1999-04-16,4.03, 1.80, -3.44, 2.11, 1.96, 8.32, repro,
1999-04-17,2.91, 1.15, -2.03, 2.17, 1.90, 8.38, repro,
1999-04-18,3.86, 0.24, -5.27, 2.10, 1.88, 8.18, repro,
1999-04-19,3.12, 2.00, 0.90, 2.09, 1.88, 8.12, repro,
1999-04-20,3.02, 0.56, 0.92, 2.13, 1.89, 8.35, repro,
1999-04-21,3.07, 0.85, 7.74, 2.14, 1.89, 8.44, repro,
1999-04-22,2.41, 0.40, -0.51, 2.14, 1.88, 8.32, repro,
1999-04-23,2.52, -0.25, 3.47, 2.13, 1.91, 8.20, repro,
1999-04-24,3.59, 0.95, 0.68, 2.11, 1.88, 8.16, repro,
1999-04-25,3.96, 1.47, 9.80, 2.17, 1.94, 8.54, repro,
1999-04-26,4.23, 2.29, 3.61, 2.09, 1.86, 8.15, repro,
1999-04-27,3.35, 1.13, 6.04, 2.13, 1.91, 8.23, repro,
1999-04-28,2.45, 1.74, -5.03, 2.14, 1.94, 8.34, repro,
1999-04-29,1.68, -0.03, 0.35, 2.15, 2.00, 8.41, repro,
1999-04-30,1.29, 0.75, 0.84, 2.15, 1.98, 8.39, repro,
1999-05-01,2.70, 0.27, 0.57, 2.24, 2.08, 8.62, repro,
1999-05-02,3.86, 1.27, 6.74, 2.11, 1.97, 8.36, repro,
1999-05-03,1.96, -0.68, 14.35, 2.14, 2.01, 8.46, repro,
1999-05-04,3.47, 1.13, 10.46, 2.15, 2.02, 8.49, repro,
1999-05-05,3.18, 0.99, 6.20, 2.21, 2.05, 8.53, repro,
1999-05-06,2.87, 1.19, -1.25, 2.14, 1.96, 8.32, repro,
1999-05-07,3.63, 2.08, -2.14, 2.11, 1.93, 8.15, repro,
1999-05-08,2.88, 0.19, 4.36, 2.13, 1.96, 8.25, repro,
1999-05-09,4.30, 1.23, 0.85, 2.13, 1.97, 8.29, repro,
1999-05-10,1.79, 1.64, -0.63, 2.15, 1.90, 8.26, repro,
1999-05-11,1.48, 1.33, 1.58, 2.15, 1.98, 8.40, repro,
1999-05-12,3.01, 1.93, -4.26, 2.19, 2.03, 8.46, repro,
1999-05-13,2.81, 1.31, 4.95, 2.15, 1.99, 8.30, repro,
1999-05-14,2.75, 1.10, -0.38, 2.14, 1.97, 8.31, repro,
1999-05-15,3.96, 1.46, 0.22, 2.15, 1.99, 8.37, repro,
1999-05-16,2.84, 2.26, -1.40, 2.18, 1.99, 8.46, repro,
1999-05-17,3.48, 0.88, 2.73, 2.19, 2.01, 8.51, repro,
1999-05-18,4.08, 0.74, 3.26, 2.32, 2.05, 9.17, repro,
1999-05-19,4.76, 0.90, 7.94, 2.13, 1.90, 8.43, repro,
1999-05-20,3.24, 0.62, -2.18, 2.14, 1.96, 8.25, repro,
1999-05-21,3.02, 1.41, 3.59, 2.15, 1.97, 8.41, repro,
1999-05-22,2.19, 1.34, -2.13, 2.10, 1.88, 8.09, repro,
1999-05-23,3.77, 0.96, 0.86, 2.14, 1.95, 8.28, repro,
1999-05-24,3.40, 0.11, -6.15, 2.10, 1.93, 8.15, repro,
1999-05-25,4.27, 0.02, 8.26, 2.12, 1.95, 8.19, repro,
1999-05-26,2.86, 0.47, 0.15, 2.12, 1.94, 8.20, repro,
1999-05-27,3.30, 1.27, 2.49, 2.09, 1.88, 8.08, repro,
1999-05-28,2.39, 1.88, 6.17, 2.14, 1.88, 8.40, repro,
1999-05-29,2.63, 0.33, 2.12, 2.08, 1.87, 8.04, repro,
1999-05-30,2.42, 0.70, 0.06, 2.07, 1.86, 7.97, repro,
1999-05-31,2.78, 0.05, -5.77, 2.12, 1.86, 8.10, repro,
1999-06-01,4.30, 0.68, 9.79, 2.18, 1.88, 8.47, repro,
1999-06-02,3.53, 1.12, 9.38, 2.09, 1.87, 8.08, repro,
1999-06-03,3.57, 1.13, 9.69, 2.18, 1.92, 8.33, repro,
1999-06-04,2.79, 0.52, 6.50, 2.11, 1.87, 8.15, repro,
1999-06-05,3.29, -0.09, 10.70, 2.21, 1.98, 8.76, repro,
1999-06-06,2.60, 1.00, 3.05, 2.16, 1.94, 8.33, repro,
1999-06-07,1.44, 1.38, 10.56, 2.14, 1.93, 8.32, repro,
1999-06-08,2.53, 1.61, 13.52, 2.08, 1.88, 8.06, repro,
1999-06-09,2.12, 1.36, 13.91, 2.09, 1.87, 8.12, repro,
1999-06-10,3.48, 0.27, 15.11, 2.12, 1.89, 8.26, repro,
1999-06-11,1.98, 0.23, 1.89, 2.13, 1.89, 8.42, repro,
1999-06-12,3.21, 0.40, 7.30, 2.07, 1.85, 8.02, repro,
1999-06-13,2.50, 0.40, 5.20, 2.11, 1.89, 8.14, repro,
1999-06-14,2.20, 0.56, 3.55, 2.28, 1.92, 8.87, repro,
1999-06-15,0.74, -0.64, 7.79, 2.12, 1.86, 8.13, repro,
1999-06-16,2.09, 0.76, 7.77, 2.09, 1.86, 8.10, repro,
1999-06-17,3.20, 0.41, 5.11, 2.12, 1.88, 8.14, repro,
1999-06-18,3.30, -0.27, 5.37, 2.07, 1.85, 8.03, repro,
1999-06-19,1.75, 0.43, 11.57, 2.11, 1.87, 8.14, repro,
1999-06-20,2.22, -0.56, 16.03, 2.09, 1.86, 8.13, repro,
1999-06-21,-0.99, -1.60, 6.96, 2.09, 1.83, 8.17, repro,
1999-06-22,3.29, -0.48, 12.05, 2.17, 1.87, 8.36, repro,
1999-06-23,0.46, 0.10, 12.18, 2.08, 1.84, 7.99, repro,
1999-06-24,2.13, 1.09, 5.96, 2.14, 1.88, 8.33, repro,
1999-06-25,0.41, 0.16, 17.65, 2.23, 1.98, 8.69, repro,
1999-06-26,1.97, -0.10, 12.64, 2.21, 1.94, 8.55, repro,
1999-06-27,2.44, -0.68, 15.34, 2.19, 1.88, 8.71, repro,
1999-06-28,0.02, -0.92, 6.78, 2.12, 1.87, 8.09, repro,
1999-06-29,1.54, -0.68, 7.72, 2.33, 2.01, 8.97, repro,
1999-06-30,1.94, 0.48, 9.37, 2.22, 1.90, 8.69, repro,
1999-07-01,1.90, 0.20, 16.18, 2.37, 2.05, 9.46, repro,
1999-07-02,1.60, 0.36, 14.98, 2.19, 1.92, 8.81, repro,
1999-07-03,1.08, -0.14, 14.01, 2.25, 1.97, 9.03, repro,
1999-07-04,0.64, 1.29, 7.85, 2.16, 1.93, 8.53, repro,
1999-07-05,2.07, -0.12, 7.71, 2.11, 1.86, 8.31, repro,
1999-07-06,2.49, -1.36, 11.70, 2.20, 1.99, 8.83, repro,
1999-07-07,2.57, 0.23, 24.03, 2.34, 1.98, 8.96, repro,
1999-07-08,3.76, -0.85, 5.90, 2.21, 1.92, 8.61, repro,
1999-07-09,1.59, -0.59, 15.32, 2.24, 1.94, 8.72, repro,
1999-07-10,1.37, 0.78, 18.08, 2.31, 2.06, 9.09, repro,
1999-07-11,1.63, 2.56, 6.59, 2.40, 7.02, 9.51, repro,
1999-07-12,2.13, -0.32, 11.42, 2.15, 1.96, 8.53, repro,
1999-07-13,-1.13, -0.93, 9.81, 2.10, 1.84, 8.18, repro,
1999-07-14,0.22, -0.73, 1.78, 2.12, 1.84, 8.28, repro,
1999-07-15,-1.25, -0.70, 10.76, 2.13, 1.87, 8.37, repro,
1999-07-16,2.36, -0.74, 12.53, 2.19, 1.87, 8.69, repro,
1999-07-17,0.57, -0.80, 5.34, 2.08, 1.83, 8.19, repro,
1999-07-18,0.62, -1.32, 11.95, 2.20, 1.88, 8.60, repro,
1999-07-19,1.37, -2.05, 2.74, 2.21, 1.87, 8.66, repro,
1999-07-20,-0.33, -1.02, 11.79, 2.23, 1.93, 8.79, repro,
1999-07-21,1.92, 0.49, 4.84, 2.21, 1.96, 8.72, repro,
1999-07-22,0.97, -0.31, 8.65, 2.40, 2.16, 9.41, repro,
1999-07-23,1.16, 0.74, 12.75, 2.19, 1.87, 8.62, repro,
1999-07-24,2.12, -2.04, 8.40, 2.25, 1.97, 8.95, repro,
1999-07-25,1.88, -0.27, 10.52, 2.18, 1.88, 8.44, repro,
1999-07-26,2.56, -0.38, 11.31, 2.34, 1.99, 8.87, repro,
1999-07-27,2.57, 0.37, 15.45, 2.16, 1.87, 8.38, repro,
1999-07-28,1.64, 0.76, 12.87, 2.16, 1.95, 8.40, repro,
1999-07-29,1.98, 0.70, 13.51, 2.21, 1.99, 8.53, repro,
1999-07-30,1.71, -0.17, 25.72, 2.16, 1.96, 8.48, repro,
1999-07-31,0.52, -1.15, 11.78, 2.26, 1.93, 8.80, repro,
1999-08-01,1.23, -1.01, 6.65, 2.05, 1.82, 7.93, repro,
1999-08-02,0.28, 0.78, 0.76, 2.16, 1.93, 8.56, repro,
1999-08-03,1.91, 0.36, 8.49, 2.26, 2.06, 8.77, repro,
1999-08-04,0.47, 0.97, -9.04, 2.17, 1.93, 8.68, repro,
1999-08-05,-1.08, 1.92, -3.60, 2.15, 1.88, 8.14, repro,
1999-08-06,-0.35, -0.89, 4.80, 2.12, 1.85, 8.09, repro,
1999-08-07,0.67, -0.03, 1.05, 2.08, 1.83, 8.04, repro,
1999-08-08,1.09, -0.16, -4.59, 2.15, 1.93, 8.54, repro,
1999-08-12,3.43, 0.92, 4.67, 4.27, 3.37, 16.57, repro,
1999-08-13,0.10, 0.57, -1.98, 2.15, 1.92, 8.37, repro,
1999-08-14,0.50, 0.57, -6.19, 2.09, 1.89, 8.18, repro,
1999-08-15,1.12, 0.78, 0.84, 2.20, 1.89, 8.45, repro,
1999-08-16,1.83, 0.29, 1.26, 2.07, 1.84, 8.04, repro,
1999-08-17,1.80, 0.68, 4.35, 2.09, 1.89, 8.17, repro,
1999-08-18,0.54, 1.10, -6.16, 2.07, 1.84, 8.12, repro,
1999-08-19,1.64, -0.26, 1.30, 2.77, 2.56, 10.63, repro,
1999-08-20,0.94, 1.47, -1.89, 2.16, 1.90, 8.30, repro,
1999-08-21,1.20, 0.65, 5.17, 2.08, 1.85, 8.16, repro,
1999-08-22,1.38, 0.00, -1.05, 2.10, 1.91, 8.27, repro,
1999-08-23,1.67, -0.27, 4.35, 2.22, 1.89, 8.39, repro,
1999-08-24,1.83, 1.36, -2.99, 2.16, 1.91, 8.42, repro,
1999-08-25,0.19, -0.11, 6.01, 2.17, 1.90, 8.37, repro,
1999-08-26,1.28, -0.10, 12.00, 2.27, 1.90, 8.88, repro,
1999-08-27,1.24, 0.91, 10.35, 2.17, 1.95, 8.34, repro,
1999-08-28,0.38, 1.53, 2.51, 2.15, 1.94, 8.36, repro,
1999-08-29,2.63, 1.63, 21.58, 2.21, 2.02, 10.26, repro,
1999-08-30,0.94, 0.75, 0.67, 2.20, 1.97, 8.49, repro,
1999-08-31,1.21, 0.02, 4.44, 2.21, 1.99, 8.48, repro,
1999-09-01,1.17, 0.61, 3.92, 2.30, 1.97, 8.80, repro,
1999-09-02,1.16, -0.06, 3.59, 2.17, 1.92, 8.33, repro,
1999-09-03,0.82, 1.14, -2.12, 2.23, 1.98, 8.63, repro,
1999-09-04,0.98, 1.48, 2.24, 2.25, 1.97, 8.67, repro,
1999-09-05,-0.06, -0.14, 3.90, 2.11, 1.89, 8.20, repro,
1999-09-06,0.27, 1.05, 4.81, 2.22, 1.97, 8.61, repro,
1999-09-07,1.58, 1.16, 3.35, 2.51, 2.03, 9.74, repro,
1999-09-08,0.87, 2.31, -3.17, 2.37, 2.00, 9.31, repro,
1999-09-09,-0.09, 1.03, -10.14, 2.22, 1.93, 8.56, repro,
1999-09-10,1.20, 0.72, 3.86, 2.22, 1.93, 8.35, repro,
1999-09-11,1.42, 0.29, -8.32, 2.35, 1.98, 8.74, repro,
1999-09-12,0.88, 0.03, -5.65, 2.21, 1.91, 8.47, repro,
1999-09-13,0.82, -0.29, -4.31, 2.20, 1.88, 8.36, repro,
1999-09-14,1.65, 1.10, -4.79, 2.19, 1.91, 8.23, repro,
1999-09-15,2.17, 1.22, -1.27, 2.22, 1.93, 8.55, repro,
1999-09-16,0.17, -0.87, 8.68, 2.23, 1.96, 8.37, repro,
1999-09-17,0.84, 1.12, -4.44, 2.30, 1.96, 8.62, repro,
1999-09-18,2.41, 0.13, -1.09, 2.30, 1.96, 8.64, repro,
1999-09-19,1.30, 1.40, 3.32, 2.21, 1.92, 8.32, repro,
1999-09-20,0.34, 0.43, 0.31, 2.25, 1.99, 8.55, repro,
1999-09-21,2.15, 1.16, -1.83, 2.26, 1.99, 8.57, repro,
1999-09-22,2.27, 0.16, -5.03, 2.30, 1.98, 8.77, repro,
1999-09-23,1.51, 1.50, 1.46, 2.33, 2.10, 8.86, repro,
1999-09-24,1.15, 1.68, 7.44, 2.41, 2.08, 9.00, repro,
1999-09-25,2.72, 1.46, 3.80, 2.22, 1.99, 8.50, repro,
1999-09-26,0.93, 1.38, 3.18, 2.40, 2.16, 9.25, repro,
1999-09-27,2.25, 1.35, 1.75, 2.35, 2.08, 9.24, repro,
1999-09-28,2.93, 1.28, -3.16, 2.45, 2.20, 9.29, repro,
1999-09-29,2.18, 2.27, 1.55, 2.59, 2.34, 9.70, repro,
1999-09-30,1.04, 2.30, 2.30, 2.74, 2.45, 10.25, repro,
1999-10-01,-0.40, 2.06, 4.70, 2.66, 2.34, 10.19, repro,
1999-10-02,3.38, 0.88, 3.09, 2.31, 2.12, 8.98, repro,
1999-10-03,3.30, 0.91, -4.85, 2.49, 2.21, 9.42, repro,
1999-10-04,2.84, 2.06, -6.34, 2.21, 1.99, 8.39, repro,
1999-10-05,0.33, 0.95, 4.00, 2.34, 2.02, 8.61, repro,
1999-10-06,2.87, 3.09, 1.41, 2.28, 2.05, 8.70, repro,
1999-10-07,0.78, 1.00, 0.68, 2.34, 1.98, 8.90, repro,
1999-10-08,2.09, 1.91, 6.17, 2.35, 2.06, 8.92, repro,
1999-10-09,2.96, 0.78, 4.41, 2.27, 1.98, 8.58, repro,
1999-10-10,2.03, 2.10, 7.03, 2.27, 1.98, 8.62, repro,
1999-10-11,0.89, 1.33, 0.17, 2.19, 1.92, 8.40, repro,
1999-10-12,0.54, 0.76, -2.00, 2.26, 1.98, 8.63, repro,
1999-10-13,0.74, 0.51, 1.83, 2.35, 2.12, 8.92, repro,
1999-10-14,0.37, 0.30, 4.08, 2.18, 1.90, 8.37, repro,
1999-10-15,1.38, -0.16, 8.53, 2.31, 2.09, 8.74, repro,
1999-10-16,-4.24, -2.88, 8.56, 2.12, 1.87, 8.24, repro,
1999-10-17,-0.91, -3.50, 6.47, 2.20, 1.86, 8.59, repro,
1999-10-18,-2.91, -3.86, 5.44, 2.34, 1.97, 8.98, repro,
1999-10-19,-2.01, -4.43, 2.97, 2.25, 1.84, 8.68, repro,
1999-10-20,-2.28, -4.26, 2.14, 2.08, 1.86, 8.08, repro,
1999-10-21,-1.21, -3.95, -0.47, 2.16, 1.92, 8.53, repro,
1999-10-22,-2.25, -5.02, 2.93, 2.29, 2.10, 9.34, repro,
1999-10-23,-0.90, -3.37, 1.49, 2.09, 1.90, 8.22, repro,
1999-10-24,-2.44, -3.89, 4.70, 2.20, 1.96, 8.66, repro,
1999-10-25,-1.99, -4.05, 0.57, 2.22, 1.96, 8.45, repro,
1999-10-26,-1.03, -3.46, 12.33, 2.02, 1.79, 8.00, repro,
1999-10-27,-1.09, -3.75, 7.18, 2.12, 1.84, 8.37, repro,
1999-10-28,0.02, -3.76, 7.68, 2.12, 1.88, 8.26, repro,
1999-10-29,-0.20, -3.94, 8.12, 2.20, 1.96, 8.48, repro,
1999-10-30,-1.43, -3.32, 0.68, 2.08, 1.82, 8.07, repro,
1999-10-31,-1.10, -3.85, 4.15, 2.26, 1.92, 8.61, repro,
1999-11-01,-1.25, -5.12, 0.32, 2.41, 2.05, 9.29, repro,
1999-11-02,-0.53, -3.36, 9.02, 2.11, 1.86, 8.18, repro,
1999-11-03,0.12, -4.52, 8.98, 2.27, 1.93, 8.86, repro,
1999-11-04,-0.86, -4.74, 6.82, 2.18, 1.85, 8.37, repro,
1999-11-05,-1.54, -3.79, 6.61, 2.16, 1.84, 8.35, repro,
1999-11-06,-1.06, -4.35, 0.14, 2.16, 1.86, 8.33, repro,
1999-11-07,-2.06, -2.98, 9.26, 2.19, 1.86, 8.40, repro,
1999-11-08,-0.10, -3.99, 8.09, 2.17, 1.84, 8.45, repro,
1999-11-09,-0.76, -4.85, 13.21, 2.08, 1.86, 8.15, repro,
1999-11-10,-2.38, -3.80, 7.29, 2.12, 1.79, 8.30, repro,
1999-11-11,-1.75, -3.32, 3.15, 2.04, 1.83, 8.13, repro,
1999-11-12,-1.24, -4.96, 0.69, 2.08, 1.84, 8.05, repro,
1999-11-13,-0.37, -4.81, 10.67, 2.20, 1.89, 8.48, repro,
1999-11-14,-0.96, -4.59, 8.52, 2.06, 1.80, 8.07, repro,
1999-11-15,-2.73, -3.71, 5.48, 2.10, 1.82, 8.28, repro,
1999-11-16,-1.31, -3.96, 8.66, 2.12, 1.86, 8.17, repro,
1999-11-17,-2.35, -5.29, 7.65, 2.08, 1.83, 8.16, repro,
1999-11-18,-2.03, -4.40, 9.19, 2.15, 1.85, 8.31, repro,
1999-11-19,-1.14, -4.69, 4.45, 2.15, 1.92, 8.29, repro,
1999-11-20,-0.93, -4.66, 9.59, 2.15, 1.92, 8.28, repro,
1999-11-21,-2.94, -5.64, 2.21, 2.29, 2.04, 8.74, repro,
1999-11-22,-1.77, -4.88, 6.27, 2.19, 1.94, 8.54, repro,
1999-11-23,-1.07, -4.90, 0.61, 2.50, 2.32, 10.03, repro,
1999-11-24,-2.27, -4.04, 1.53, 2.56, 2.49, 10.53, repro,
1999-11-25,-0.49, -3.10, 9.18, 2.26, 1.99, 8.75, repro,
1999-11-26,-2.07, -5.09, 5.73, 2.21, 2.15, 8.80, repro,
1999-11-27,-0.76, -4.11, 4.01, 2.02, 1.84, 8.05, repro,
1999-11-28,-1.87, -3.57, -4.13, 2.06, 1.88, 8.12, repro,
1999-11-29,-0.42, -3.42, -2.10, 2.09, 1.87, 8.32, repro,
1999-11-30,0.69, -4.19, -3.26, 2.16, 1.87, 8.39, repro,
1999-12-01,-1.65, -4.13, 10.95, 2.27, 2.14, 9.22, repro,
1999-12-02,-1.52, -4.90, 1.78, 1.99, 1.78, 7.89, repro,
1999-12-03,-2.52, -4.00, 10.40, 2.37, 2.30, 9.74, repro,
1999-12-04,-2.24, -4.55, -4.05, 2.23, 2.08, 8.76, repro,
1999-12-05,-2.47, -3.73, -0.33, 2.06, 1.86, 8.19, repro,
1999-12-06,-2.37, -4.08, 5.24, 2.27, 2.06, 9.19, repro,
1999-12-07,-1.89, -4.15, 14.88, 2.38, 2.17, 9.62, repro,
1999-12-08,-3.58, -5.42, 5.45, 2.73, 2.41, 10.41, repro,
1999-12-09,-1.14, -2.69, 8.45, 2.23, 2.15, 8.92, repro,
1999-12-10,-2.53, -5.71, 4.49, 2.06, 1.85, 8.11, repro,
1999-12-11,-2.43, -4.84, 1.53, 2.23, 2.14, 9.06, repro,
1999-12-12,-1.90, -4.64, 7.67, 2.27, 2.13, 9.09, repro,
1999-12-13,-2.17, -4.30, 0.23, 2.39, 2.39, 9.64, repro,
1999-12-14,-2.92, -4.01, 4.75, 2.36, 2.05, 9.06, repro,
1999-12-15,-2.86, -5.10, 5.01, 2.34, 2.07, 9.53, repro,
1999-12-16,-2.00, -4.47, 7.96, 2.29, 2.01, 8.99, repro,
1999-12-17,-0.80, -5.17, 1.48, 2.32, 2.07, 9.12, repro,